TimeCST,TemperatureF,Dew PointF,Humidity,Sea Level PressureIn,VisibilityMPH,Wind Direction,Wind SpeedMPH,Gust SpeedMPH,PrecipitationIn,Events,Conditions,WindDirDegrees,DateUTC
12:56 AM,28.0,20.1,72,30.42,10.0,North,9.2,-,N/A,,Overcast,350,2012-12-30 06:56:00
1:56 AM,27.1,20.1,75,30.42,10.0,North,10.4,-,N/A,,Mostly Cloudy,350,2012-12-30 07:56:00
2:21 AM,26.6,19.4,74,30.40,10.0,North,5.8,-,N/A,,Scattered Clouds,360,2012-12-30 08:21:00
2:56 AM,25.2,20.1,81,30.44,10.0,North,5.8,-,N/A,,Clear,360,2012-12-30 08:56:00
3:56 AM,24.1,19.0,81,30.44,10.0,North,5.8,-,N/A,,Clear,350,2012-12-30 09:56:00
4:56 AM,23.0,19.0,85,30.44,10.0,North,6.9,-,N/A,,Clear,360,2012-12-30 10:56:00
5:56 AM,23.0,19.0,85,30.48,10.0,North,4.6,-,N/A,,Clear,350,2012-12-30 11:56:00
6:56 AM,22.1,19.0,88,30.52,9.0,NNW,3.5,-,N/A,,Clear,330,2012-12-30 12:56:00
7:56 AM,25.2,20.1,81,30.52,8.0,Variable,4.6,-,N/A,,Clear,0,2012-12-30 13:56:00
8:56 AM,29.1,19.0,66,30.54,10.0,North,6.9,-,N/A,,Clear,10,2012-12-30 14:56:00
9:56 AM,32.0,19.0,59,30.56,10.0,NE,6.9,-,N/A,,Clear,50,2012-12-30 15:56:00
10:56 AM,34.9,21.0,57,30.53,10.0,Variable,6.9,-,N/A,,Clear,0,2012-12-30 16:56:00
11:56 AM,37.9,21.0,51,30.51,10.0,Variable,3.5,-,N/A,,Clear,0,2012-12-30 17:56:00
12:56 PM,39.9,22.1,49,30.46,10.0,Variable,4.6,-,N/A,,Clear,0,2012-12-30 18:56:00
1:56 PM,41.9,21.0,43,30.46,10.0,ENE,4.6,-,N/A,,Clear,70,2012-12-30 19:56:00
2:56 PM,43.0,19.0,38,30.48,10.0,North,3.5,-,N/A,,Clear,360,2012-12-30 20:56:00
3:56 PM,41.9,22.1,45,30.45,10.0,NNE,4.6,-,N/A,,Clear,30,2012-12-30 21:56:00
4:56 PM,36.9,22.1,55,30.45,10.0,NNE,3.5,-,N/A,,Clear,20,2012-12-30 22:56:00
5:56 PM,32.9,25.2,73,30.45,10.0,NE,3.5,-,N/A,,Clear,50,2012-12-30 23:56:00
6:56 PM,29.1,25.2,85,30.45,10.0,Calm,Calm,-,N/A,,Clear,0,2012-12-31 00:56:00
7:56 PM,27.1,24.1,88,30.45,10.0,Calm,Calm,-,N/A,,Clear,0,2012-12-31 01:56:00
8:56 PM,27.1,25.2,92,30.44,10.0,Calm,Calm,-,N/A,,Clear,0,2012-12-31 02:56:00
9:56 PM,26.1,24.1,92,30.42,10.0,East,3.5,-,N/A,,Clear,80,2012-12-31 03:56:00
10:56 PM,28.0,26.1,92,30.41,10.0,ESE,3.5,-,N/A,,Clear,120,2012-12-31 04:56:00